User: anonymous   Login
Location: Unspecified
(0.0000°N, 0.0000°E)
Time: 06:43:51
(UTC+00:00)
Language:

Meteor 2-11 - Orbit

View from above orbital plane
View from above orbital plane
View from above satellite
View from above satellite

Ground track
Ground track

The orbit data is extracted from the following two-line orbital elements,

1 15099U 84072A   18173.80331170  .00000020  00000-0  42878-5 0  9994
2 15099  82.5295 204.4650 0013323  11.9324 348.2150 13.85039106716609
Epoch (UTC): 22 June 2018 19:16:46
Eccentricity: 0.0013323
inclination: 82.5295°
perigee height: 936 km
apogee height: 956 km
right ascension of ascending node: 204.4650°
argument of perigee: 11.9324°
revolutions per day: 13.85039106
mean anomaly at epoch: 348.2150°
orbit number at epoch: 71660

The dashed part of the orbit path shows where the satellite is in the earth's shadow,  

DLR